BREEZE-M DEB (TANK), 37871

Orbit data source: Space-Track

BREEZE-M DEB (TANK), 37871 is space debris in HEO originally from a launch on Fri, 04 Nov 2011 UTC launched from the Tyuratam Missile And Space Complex (TTMTR). Debris objects in space refer to the collection of defunct objects orbiting the Earth. Examples of debris include non-operational satellites, rocket bodies, and fragments generated from explosions, collisions, or faulty payload assembly.

Loading next visibility...
Identifier
37871, 2011-064E
Orbit
HEO
Last TLE update
1 day ago
Origin
Manufacturer
Khrunichev
Mission
Spacecraft
Bus & Motor
BRIZ TANK, Unknown motor
Mass
~1,000 kg wet, 1,000 kg dry
Launch date (UTC)
2011-11-04 (14 years ago)
Launch vehicle
Unknown
Launch site
Tyuratam Missile And Space Complex (TTMTR)
Object type
Payload
Rocket body
Debris
Shape & HBR
Torus, 4 m
Radar Cross Section
8.218 m², Large (>1 m²)

Expand to show TLE details & history

TLE from 1 day ago
0 BREEZE-M DEB (TANK)
1 37871U 11064E   25191.56588065  .00001165  00000-0  37089-3 0  9992
2 37871  52.6573 343.5747 5753473 351.4548   1.8122  4.39653524215949
Epoch: 2025-07-10T13:34Z
TLE epoch observation values (Epoch: 2025-07-10T13:34:52.088Z)
Latitude
-0.00017°
Longitude
-148.87889°
Altitude
337.016 km
Speed
9.665 km/s
True Right ascension
22h 54m 16s
True Declination
0° 00' 01"
Sunlit
Object was in full shadow at epoch
Visualization orbit readout
Latitude
34.82664°
Longitude
-1.68389°
Altitude
12,923.721 km
Speed
3.999 km/s
Apparent Right ascension
07h 38m 40s
Apparent Declination
27° 57' 10"
Sunlit
Object is in daylight
Visualization observer readout
Local Sidereal Time
11:53:42
Azimuth
277.825° WNW
Elevation
36.896°
Doppler factor
1
Orbital elements
Apogee altitude
18,417.696 km
Perigee altitude
305.861 km
Semi-major axis
15,739.915 km
Eccentricity
0.57535
Inclination
52.6573°
RAAN
343.5747°
Arg. of periapsis
351.4548°
True anomaly
Unknown
Mean anomaly
1.8122°
Eccentric anomaly
Unknown
Mean motion
1.09911 °/min
Orbital period
327.54 mins
BSTAR
0.00037089
Loading maneuver chart data...
Loading SW <> Apogee altitude chart data...
Loading historical data...
Loading historical data...
Loading historical data...
Loading historical data...
Loading historical data...
Loading historical data...
Loading historical data...

BREEZE-M DEB (TANK) Visibility forecast

Observer location: undefined°, undefined°

Span
Click to sort rows by Start time (UTC) header in descending order
Start Az.
Max El. time (UTC)
Max El. Az.
Max El.
End time (UTC)
End Az.
141 mins2025-07-11 23:33:40.404Z277.775° WNW2025-07-11 23:49:40.404Z266.837° W31.875°2025-07-12 01:54:40.404Z229.276° WSW
110 mins2025-07-12 14:54:40.404Z276.613° WNW2025-07-12 15:03:40.404Z358.278° N41.26°2025-07-12 16:44:40.404Z87.531° E
175 mins2025-07-12 20:38:40.404Z308.498° NW2025-07-12 21:26:40.404Z247.158° WSW43.116°2025-07-12 23:33:40.404Z196.799° SSW
|